Date String (YYYY-MM-DD hh:mm:ss) UTC,Instrument flags,absolute air pressure of the measurement (hPa),sample flow rate (lpm),inlet stack bypass flow (lpm),air temperature of the measurement (°C),ambient temperature measured by the external sensor (°C),aerosol sample conditioner tube jacket temperature (°C),OPC LED temperature (°C),internal box temperature (°C),relative humidity of the measurement (%),span deviation,mass concentration of particles derived from Lorenz-Mie calculation of OPC scattering (μg/m³),mass concentration of particles derived from Lorenz-Mie calculation of OPC scattering (μg/m³),mass concentration of particles derived from Lorenz-Mie calculation of OPC scattering (μg/m³)
DateTimeUTC,F1_M11,P_M11,Q1_M11,Q2_M11,T1_M11,T2_M11,T3_M11,T4_M11,T5_M11,U1_M11,ZSPAN_M11,X0_M11,X2_M11,X1_M11
2024-03-12 13:00:00,SystemResetWarning,0824.5,5.00,000.00,019.5,018.7,000.0,028.1,021.2,14.5,0000.0,0005.60,0002.15,0001.12
2024-03-12 13:01:00,SystemResetWarning,0824.5,5.00,000.00,019.5,018.7,000.0,028.1,021.2,14.5,0000.0,0006.66,0002.18,0001.11
2024-03-12 13:02:00,SystemResetWarning,0824.5,5.00,000.00,019.5,018.7,000.0,028.0,021.2,15.0,0000.0,0006.12,0002.16,0001.11
2024-03-12 13:03:00,SystemResetWarning,0824.6,4.99,000.00,019.5,018.7,000.0,028.0,021.2,15.9,0000.0,0005.92,0002.11,0001.10
2024-03-12 13:04:00,SystemResetWarning,0824.7,4.99,000.00,019.5,018.7,000.0,028.0,021.2,16.2,0000.0,0005.72,0002.09,0001.10
2024-03-12 13:05:00,SystemResetWarning,0824.7,5.00,000.00,019.5,018.7,000.0,028.0,021.2,16.3,0000.0,0005.40,0002.05,0001.09
2024-03-12 13:06:00,SystemResetWarning,0824.7,5.00,000.00,019.5,018.7,000.0,028.0,021.2,16.3,0000.0,0005.22,0002.04,0001.08
2024-03-12 13:07:00,SystemResetWarning,0824.7,5.01,000.00,019.5,018.8,000.0,028.0,021.2,16.3,0000.0,0005.58,0002.04,0001.07
2024-03-12 13:08:00,SystemResetWarning,0824.7,5.00,000.00,019.5,018.8,000.0,028.0,021.2,16.4,0000.0,0005.73,0002.00,0001.06
2024-03-12 13:09:00,SystemResetWarning,0824.7,5.01,000.00,019.5,018.8,000.0,028.0,021.2,16.4,0000.0,0005.80,0001.99,0001.05
2024-03-12 13:10:00,SystemResetWarning,0824.7,5.00,000.00,019.5,018.8,000.0,028.0,021.2,16.3,0000.0,0005.78,0001.95,0001.04
2024-03-12 13:11:00,SystemResetWarning,0824.7,4.99,000.00,019.5,018.8,000.0,028.0,021.2,16.4,0000.0,0005.76,0001.98,0001.04
2024-03-12 13:12:00,SystemResetWarning,0824.7,4.99,000.00,019.5,018.8,000.0,027.9,021.2,16.4,0000.0,0005.21,0002.06,0001.05
2024-03-12 13:13:00,SystemResetWarning,0824.7,5.00,000.00,019.5,018.8,000.0,027.9,021.2,16.4,0000.0,0004.92,0002.10,0001.07
2024-03-12 13:14:00,SystemResetWarning,0824.7,5.00,000.00,019.5,018.8,000.0,027.9,021.2,16.3,0000.0,0005.06,0002.15,0001.08
2024-03-12 13:15:00,SystemResetWarning,0824.7,5.01,000.00,019.5,018.8,000.0,027.9,021.2,16.2,0000.0,0005.91,0002.17,0001.08
2024-03-12 13:16:00,SystemResetWarning,0824.6,5.00,000.00,019.5,018.8,000.0,027.9,021.2,15.1,0000.0,0006.45,0002.15,0001.08
2024-03-12 13:17:00,SystemResetWarning,0824.7,5.00,000.00,019.4,018.7,000.0,027.9,021.2,14.8,0000.0,0007.22,0002.12,0001.08
2024-03-12 13:18:00,SystemResetWarning,0824.7,5.01,000.00,019.4,018.7,000.0,027.9,021.2,15.0,0000.0,0007.58,0002.10,0001.10
2024-03-12 13:19:00,SystemResetWarning,0824.7,4.99,000.00,019.4,018.7,000.0,027.9,021.2,15.1,0000.0,0007.94,0002.14,0001.10
2024-03-12 13:20:00,SystemResetWarning,0824.7,4.99,000.00,019.4,018.7,000.0,027.9,021.2,15.8,0000.0,0008.24,0002.17,0001.12
2024-03-12 13:21:00,SystemResetWarning,0824.7,5.00,000.00,019.4,018.7,000.0,027.9,021.2,16.2,0000.0,0008.33,0002.23,0001.17
2024-03-12 13:22:00,SystemResetWarning,0824.7,5.00,000.00,019.4,018.7,000.0,027.9,021.2,16.1,0000.0,0008.48,0002.33,0001.22
2024-03-12 13:23:00,SystemResetWarning,0824.7,5.01,000.00,019.4,018.7,000.0,027.9,021.2,15.8,0000.0,0008.41,0002.32,0001.26
2024-03-12 13:24:00,SystemResetWarning,0824.7,5.01,000.00,019.4,018.7,000.0,027.9,021.1,15.8,0000.0,0008.82,0002.40,0001.31
2024-03-12 13:25:00,SystemResetWarning,0824.7,5.00,000.00,019.4,018.7,000.0,027.9,021.1,15.9,0000.0,0009.20,0002.44,0001.33
2024-03-12 13:26:00,SystemResetWarning,0824.7,4.99,000.00,019.4,018.7,000.0,027.9,021.1,15.7,0000.0,0009.12,0002.62,0001.38
2024-03-12 13:27:00,SystemResetWarning,0824.7,5.00,000.00,019.4,018.7,000.0,027.9,021.2,15.6,0000.0,0009.13,0002.77,0001.42
2024-03-12 13:28:00,SystemResetWarning,0824.6,5.00,000.00,019.4,018.7,000.0,027.9,021.2,15.2,0000.0,0009.21,0002.90,0001.45
2024-03-12 13:29:00,SystemResetWarning,0824.6,5.00,000.00,019.4,018.7,000.0,027.9,021.2,15.1,0000.0,0009.83,0003.00,0001.49
2024-03-12 13:30:00,SystemResetWarning,0824.5,5.01,000.00,019.4,018.7,000.0,027.9,021.1,15.4,0000.0,0010.00,0003.08,0001.52
2024-03-12 13:31:00,SystemResetWarning,0824.4,5.00,000.00,019.4,018.7,000.0,027.9,021.1,15.6,0000.0,0009.87,0003.13,0001.53
2024-03-12 13:32:00,SystemResetWarning,0824.5,5.00,000.00,019.4,018.7,000.0,027.9,021.1,15.4,0000.0,0010.27,0003.15,0001.51
2024-03-12 13:33:00,SystemResetWarning,0824.5,5.00,000.00,019.4,018.7,000.0,027.9,021.1,15.6,0000.0,0010.39,0003.17,0001.49
2024-03-12 13:34:00,SystemResetWarning,0824.5,5.00,000.00,019.4,018.7,000.0,027.9,021.1,15.0,0000.0,0010.34,0003.13,0001.46
2024-03-12 13:35:00,SystemResetWarning,0824.5,4.99,000.00,019.4,018.7,000.0,027.8,021.1,15.1,0000.0,0010.10,0003.09,0001.41
2024-03-12 13:36:00,SystemResetWarning,0824.5,5.00,000.00,019.4,018.7,000.0,027.8,021.1,14.9,0000.0,0009.64,0003.03,0001.37
2024-03-12 13:37:00,SystemResetWarning,0824.4,5.01,000.00,019.4,018.7,000.0,027.8,021.2,15.2,0000.0,0009.62,0003.00,0001.34
2024-03-12 13:38:00,SystemResetWarning,0824.4,5.01,000.00,019.4,018.7,000.0,027.9,021.1,15.2,0000.0,0009.80,0002.97,0001.32
2024-03-12 13:39:00,SystemResetWarning,0824.4,5.00,000.00,019.4,018.8,000.0,027.9,021.2,14.9,0000.0,0009.90,0003.05,0001.34
2024-03-12 13:40:00,SystemResetWarning,0824.4,4.99,000.00,019.4,018.8,000.0,027.9,021.2,14.8,0000.0,0008.94,0003.07,0001.33
2024-03-12 13:41:00,SystemResetWarning,0824.4,4.99,000.00,019.4,018.8,000.0,027.9,021.1,14.8,0000.0,0008.62,0003.02,0001.33
2024-03-12 13:42:00,SystemResetWarning,0824.4,4.99,000.00,019.4,018.8,000.0,027.8,021.2,14.8,0000.0,0008.19,0002.99,0001.34
2024-03-12 13:43:00,SystemResetWarning,0824.4,5.01,000.00,019.4,018.8,000.0,027.9,021.2,14.8,0000.0,0007.96,0002.94,0001.36
2024-03-12 13:44:00,SystemResetWarning,0824.4,5.01,000.00,019.4,018.8,000.0,027.9,021.2,15.3,0000.0,0008.13,0002.88,0001.37
2024-03-12 13:45:00,SystemResetWarning,0824.4,5.01,000.00,019.4,018.8,000.0,027.9,021.2,15.6,0000.0,0008.11,0002.89,0001.38
2024-03-12 13:46:00,SystemResetWarning,0824.4,5.00,000.00,019.4,018.8,000.0,027.9,021.2,15.6,0000.0,0008.15,0002.94,0001.38
2024-03-12 13:47:00,SystemResetWarning,0824.4,5.00,000.00,019.4,018.8,000.0,027.9,021.2,15.6,0000.0,0008.13,0002.95,0001.38
2024-03-12 13:48:00,SystemResetWarning,0824.4,5.00,000.00,019.4,018.8,000.0,027.9,021.2,15.0,0000.0,0008.07,0002.93,0001.39
2024-03-12 13:49:00,SystemResetWarning,0824.5,4.99,000.00,019.4,018.8,000.0,027.9,021.2,15.1,0000.0,0007.60,0002.79,0001.39
2024-03-12 13:50:00,SystemResetWarning,0824.4,4.98,000.00,019.4,018.8,000.0,027.9,021.2,15.2,0000.0,0007.05,0002.68,0001.38
2024-03-12 13:51:00,SystemResetWarning,0824.4,5.00,000.00,019.4,018.8,000.0,027.9,021.2,15.2,0000.0,0006.90,0002.66,0001.39
2024-03-12 13:52:00,SystemResetWarning,0824.4,5.01,000.00,019.4,018.9,000.0,027.9,021.2,15.2,0000.0,0006.87,0002.64,0001.38
2024-03-12 13:53:00,SystemResetWarning,0824.4,5.01,000.00,019.5,018.9,000.0,027.9,021.2,15.3,0000.0,0007.18,0002.72,0001.37
2024-03-12 13:54:00,SystemResetWarning,0824.4,5.00,000.00,019.5,018.9,000.0,027.9,021.2,15.1,0000.0,0007.44,0002.75,0001.37
2024-03-12 13:55:00,SystemResetWarning,0824.4,4.99,000.00,019.5,018.9,000.0,027.9,021.2,14.8,0000.0,0007.78,0002.89,0001.37
2024-03-12 13:56:00,SystemResetWarning,0824.4,4.99,000.00,019.5,018.9,000.0,027.9,021.2,15.0,0000.0,0007.88,0002.88,0001.37
2024-03-12 13:57:00,SystemResetWarning,0824.5,5.00,000.00,019.5,018.9,000.0,027.9,021.3,15.1,0000.0,0007.88,0002.84,0001.38
2024-03-12 13:58:00,SystemResetWarning,0824.6,5.00,000.00,019.5,018.9,000.0,027.9,021.3,15.0,0000.0,0007.94,0002.83,0001.39
2024-03-12 13:59:00,SystemResetWarning,0824.5,5.00,000.00,019.5,018.9,000.0,027.9,021.3,14.9,0000.0,0007.73,0002.74,0001.38
